www.pogodaiklimat.ru

АРХИВ ПОГОДЫ в Краснодаре

Время (UTC), дата Ветер
(напр.,м/с)
 
Видим.   Явления Облачность Т
(С)
Тd
(С)
f
(%)
Тe
(С)
Тes
(С)
Комфортность P
(гПа)
Po
(гПа)
Тmin
(С)
Tmax
(С)
R
(мм)
S
(см)
06 8.09 ЮВ 2 10 км 9/6 1000 м
[Sc Ac trans]
+24.8 +18.7 69 +30 +31 душно 1010.1 1006.6
09 8.09 З 2 10 км 8/0
[Ac trans Ci fib]
+29.0 +18.5 53 +34 +40 очень
душно
1009.7 1006.3
12 8.09 З 2 10 км 9/6 1000 м
[Cb cap Ac trans Ci fib]
+28.7 +18.2 53 +33 +35 очень
душно
1009.3 1005.9
15 8.09 В 3 10 км слабый ливневой дождь 9/5
[Cb cap Ac trans]
+22.8 +19.5 82 +29 +29 очень
душно
1010.5 1007.0 +30.0 0.0
18 8.09 Ю 1 10 км {ливн. осадки} 9/5 1000 м
[Cb cap Ac trans]
+20.8 +18.7 88 +26 +26 душно 1011.0 1007.5
21 8.09 В 1 10 км 8/0
[Ac trans Ci fib]
+20.7 +18.5 87 +26 +26 душно 1010.6 1007.1
00 9.09 штиль 0 10 км 8/3
[Cb cap Ac trans]
+19.7 +18.4 92 +22 +22 комфорт 1010.2 1006.7
03 9.09 штиль 0 10 км слабый ливневой дождь 10/8 1000 м
[Cb cap Ac trans]
+19.7 +18.1 90 +22 +22 комфорт 1009.8 1006.3 +19.6 2
06 9.09 В 1
{12}
4000 м ливневой дождь {гроза} 10/10 300 м
[Cb cap]
+17.9 +17.2 96 +19 +19 по сезону 1011.2 1007.7 +17.4
09 9.09 ЮВ 2 10 км {гроза, ливн. осадки} 8/4 1000 м
[Cb cap Ac trans Ci fib]
+23.0 +18.0 73 +28 +33 душно 1010.8 1007.3
12 9.09 В 2 10 км {гроза, ливн. осадки} 10/5 1000 м
[Cb cap Ci fib]
+23.6 +18.1 71 +28 +31 душно 1010.6 1007.2
15 9.09 штиль 0 4000 м слабый ливневой дождь, в посл. час гроза 9/8 600 м
[Cb cap Ci fib]
+20.0 +18.7 92 +23 +23 комфорт 1011.7 1008.2 +25.9 28
18 9.09 Ю 1 10 км {гроза, ливн. осадки} 8/4 1000 м
[Cb cap Ac trans Ci fib]
+19.8 +17.9 89 +24 +24 комфорт 1011.9 1008.4
21 9.09 штиль 0 10 км 10/3 1000 м
[Sc Ac trans Ci fib]
+19.3 +17.8 91 +21 +21 комфорт 1012.2 1008.7
00 10.09 З 1 10 км 8/4 1000 м
[Cb cap Ci fib]
+19.5 +17.8 90 +23 +23 комфорт 1012.4 1008.8
03 10.09 штиль 0 10 км 6/4 1000 м
[Sc Ac trans Ci fib]
+18.4 +17.3 93 +19 +19 тепло 1012.7 1009.1 +18.4
06 10.09 Ю 1 4000 м дымка 9/6 1000 м
[Sc Ac trans]
+20.7 +17.8 83 +26 +27 душно 1013.6 1010.0 +18.3
09 10.09 Ю 1 10 км 5/3 1000 м
[Cu med, cong Ac trans]
+25.6 +16.2 56 +29 +37 душно 1013.5 1010.0
12 10.09 ЮВ 1 10 км 10/5 1000 м
[Cb cap Ci fib]
+28.0 +14.9 45 +31 +34 душно 1012.8 1009.4
15 10.09 В 1 10 км 10/3 1000 м
[Cb cap Ci fib]
+26.0 +14.6 49 +28 +29 жарко 1013.0 1009.5 +28.5
18 10.09 ЮВ 2 10 км 3/3 1000 м
[Sc]
+23.7 +16.8 65 +27 +27 жарко 1013.7 1010.3
21 10.09 штиль 0 10 км 9/4 1000 м
[Sc Ac trans]
+20.9 +17.4 80 +24 +24 комфорт 1013.6 1010.1
00 11.09 З 1 10 км 8/0
[Ac trans Cs]
+19.9 +16.8 82 +24 +24 комфорт 1013.4 1009.9
03 11.09 штиль 0 10 км 9/5 1000 м
[Sc Ac trans]
+19.0 +16.8 87 +20 +20 тепло 1013.8 1010.3 +19.0
06 11.09 СВ 1 10 км 9/4 1000 м
[Sc diur, vesp Ac trans Ci fib]
+21.3 +16.9 76 +25 +27 комфорт 1014.3 1010.8 +19.0
09 11.09 В 2 10 км 9/5 1000 м
[Cb cap Ac trans]
+23.4 +16.2 64 +28 +31 душно 1014.7 1011.2
12 11.09 В 2 4000 м слабый ливневой дождь 10/9 1000 м
[Cb cap Ac trans]
+23.0 +17.5 71 +28 +29 душно 1014.8 1011.3
15 11.09 В 2 10 км {ливн. осадки} 10/8 1000 м
[Cb cap Ac trans]
+22.5 +18.1 76 +28 +28 душно 1015.5 1012.0 +24.6
18 11.09 СВ 1 10 км {ливн. осадки} 10/8 1000 м
[Cb cap Ac trans]
+19.7 +17.2 85 +23 +23 комфорт 1017.0 1013.5
21 11.09 СВ 2 10 км 10/8 1000 м
[Cb cap Ac trans]
+18.6 +15.3 81 +20 +20 тепло 1016.9 1013.3
00 12.09 В 2 10 км 8/6 1000 м
[Cb cap Ac trans]
+17.4 +14.4 83 +18 +18 тепло 1016.4 1012.9
03 12.09 СВ 1 10 км 8/5 1000 м
[Cb cap Ac trans]
+16.3 +13.9 86 +17 +17 по сезону 1017.2 1013.6 +16.2
06 12.09 В 2 10 км 8/3 1000 м
[Sc Ac trans Ci fib]
+20.8 +14.3 66 +24 +27 комфорт 1017.0 1013.5
09 12.09 В 2 10 км 8/8 1000 м
[Sc]
+22.4 +15.7 66 +26 +29 жарко 1016.9 1013.4
12 12.09 СВ 1 10 км 6/6 1000 м
[Cb cap]
+25.9 +15.5 53 +29 +32 душно 1016.2 1012.7
15 12.09 ЮВ 1 10 км 5/0 1000 м
[Sc]
+24.2 +16.0 60 +27 +28 жарко 1016.4 1012.9 +26.2
18 12.09 штиль 0 10 км 8/0
[Ac trans]
+20.7 +16.5 77 +24 +24 комфорт 1017.2 1013.6
21 12.09 СВ 1 10 км 5/0
[Ac trans]
+19.5 +12.9 66 +22 +22 комфорт 1017.1 1013.6
00 13.09 СВ 1 10 км 4/0
[Ac trans]
+17.0 +12.7 76 +18 +18 тепло 1017.6 1014.0
03 13.09 С 1 10 км 6/0
[Ac trans]
+15.2 +12.7 85 +16 +16 по сезону 1018.4 1014.8 +15.2
06 13.09 СВ 1 10 км ясно +20.0 +13.5 66 +23 +29 комфорт 1018.9 1015.4 +15.1
09 13.09 С 2 10 км 8/8 1000 м
[Cu med, cong]
+23.4 +14.2 56 +27 +29 душно 1018.5 1015.0
12 13.09 С 2 10 км 8/8 1000 м
[Sc diur, vesp]
+23.8 +13.8 53 +26 +28 жарко 1018.1 1014.6
15 13.09 С 3 10 км ясно +19.4 +12.3 63 +21 +21 комфорт 1018.7 1015.1 +25.4
18 13.09 СВ 2 10 км ясно +16.1 +10.7 70 +16 +16 прохладно 1019.4 1015.8
21 13.09 СВ 1 10 км ясно +14.3 +10.5 78 +15 +15 по сезону 1018.8 1015.2
00 14.09 СВ 2 10 км 3/0
[Ac trans]
+12.9 +10.3 84 +12 +12 прохладно 1018.0 1014.4
03 14.09 СВ 1 10 км 8/8 1000 м
[Sc]
+12.8 +10.9 88 +13 +13 прохладно 1017.8 1014.2 +12.7
06 14.09 СВ 1 10 км 4/4 1000 м
[Cu Sc]
+16.3 +11.8 75 +17 +21 по сезону 1017.3 1013.7 +12.7
09 14.09 СВ 2 10 км 9/0 1000 м
[Ac trans]
+19.7 +11.3 58 +22 +29 комфорт 1016.4 1012.9
12 14.09 В 2 10 км 5/5 1000 м
[Cu hum]
+22.4 +12.5 53 +25 +29 комфорт 1015.6 1012.1
15 14.09 В 2 10 км 9/9 1000 м
[Sc]
+21.7 +13.5 60 +24 +24 комфорт 1015.1 1011.6 +23.0
18 14.09 С 1 10 км 4/4 1000 м
[Sc]
+19.6 +14.2 71 +22 +22 комфорт 1014.8 1011.3
21 14.09 С 1 10 км 9/9 1000 м
[Sc]
+19.8 +14.1 70 +23 +23 комфорт 1013.9 1010.4
00 15.09 штиль 0 10 км 8/8 1000 м
[Sc]
+18.4 +14.3 77 +19 +19 тепло 1013.7 1010.2
03 15.09 штиль 0 10 км 3/0
[Ac trans]
+16.1 +14.3 89 +16 +16 по сезону 1013.5 1009.9 +16.1

 

Обсудить погоду в Краснодаре на МЕТЕОФОРУМЕ

 

Местоположение метеостанции Краснодар (Краснодарский край, Россия): широта 45.03 долгота 39.15 высота над уровнем моря 34 м.

В архиве по умолчанию представлена погода в Краснодаре за последнюю неделю. Архивные данные за месяц целиком и за предыдущие месяцы, начиная с января 2011 года, Вы можете получить, выбрав интересующий диапазон дат из раскрывающегося списка и нажав кнопку "Ввод!".

Внимание! Время в таблицах - всемирное. Для получения местного времени необходимо прибавить поправку, которая в Краснодаре равна 4 ч.

Ветер - указаны скорость ветра в м/с - средняя за 10 мин, порывы в срок и между сроками (в фигурных скобках) и направление, откуда дует ветер: С - северный, СВ - северо-восточный, В - восточный, ЮВ - юго-восточный, Ю - южный, ЮЗ - юго-западный, З - западный, СЗ - северо-западный.
Видимость - горизонтальная дальность видимости в метрах или километрах. При видимости от 1 до 10 км при отсутствии осадков обычно наблюдается дымка, при ухудшении видимости до 1 км и менее - туман. В сухую погоду видимость может ухудшаться дымом, пылью или мглою.
Явления - указаны атсосферные явления, наблюдавшиеся в срок или в последний час перед сроком; фигурными скобками обозначены явления, наблюдавшиеся между сроками (за 1-3 часа до срока); квадратными скобками обозначены град или гололедные отложения с указанием их диаметра в мм.
Облачность - указаны через наклонную черту общая и нижняя облачность в баллах и высота нижней границы облаков в метрах; квадратными скобками обозначены формы облаков: Ci - перистые, Cs - перисто-слоистые, Cc - перисто-кучевые, Ac - высококучевые, As - высокослоистые, Sc - слоисто-кучевые, Ns - слоисто-дождевые, Cu - кучевые, Cb - кучево-дождевые. Подробнее классификацию облаков см. в Атласе облаков (PDF).
T - Температура воздуха - температура, измеренная на высоте 2 м над землей.
Td - Температура точки росы - температура, при понижении до которой содержащийся в воздухе водяной пар достигнет насыщения.
f - Относительная влажность воздуха - влажноcть воздуха, измеренная на высоте 2 м над землей.
Te - Эффективная температура - температура, которую ощущает одетый по сезону человек в тени. Характеристика душности погоды. При расчете учитывается влияние влажности воздуха и скорости ветра на теплоощущения человека.
Tes - Эффективная температура на солнце - температура, которую ощущает человек, с поправкой на солнечный нагрев. Характеристика знойности погоды. Зависит от высоты солнца над горизонтом, облачности и скорости ветра. Ночью, в пасмурную погоду, а также при ветре 12 м/с и более поправка равна нулю.
P - Атмосферное давление - приведенное к уровню моря атмосферное давление.
Po - Атмосферное давление - измеренное на уровне метеостанции атмосферное давление.
Tmin - Минимальная температура - минимум температуры воздуха на высоте 2 м над землей.
Tmax - Максимальная температура - максимум температуры воздуха на высоте 2 м над землей.
R - Количество осадков - Количество выпавших осадков, мм.
S - Снежный покров - Высота снежного покрова, см.